Погода в Красноармейске

Россия / Саратовская область     51°01′24″N   45°41′42″E
В апреле 2022 года жителям России запретили посещать сайт meteo.paraplan.net по решению Генеральной прокуратуры. Аудитория сайта уменьшилась в 10 раз. Владельцы сайта не видят смысла в поддержке погодного сервера в таких условиях. Сайт будет закрыт в октябре.
темп.,
°C
ветер,
м/с
пор.,
м/с
влажн.,
%
обл.,
%
осадки,
мм/ч
давл.,
гПа
погр.,
м
4 октября, вт
вт401:00+13юв51095100 0.5 1016378
04:00+12ююв5993100 0.6 1017513
07:00+12юв4794100 0.1 1018337
10:00+13юв468893 0.1 1019403
13:00+17ююв71052100 0.0 10191136
16:00+11ююв61293100 2.3 1020580
19:00+10юв71392100 5.1 1021793
22:00+10ююв61494100 8.2 1021686
5 октября, ср
ср501:00+10юв41189100 0.0 1021430
04:00+9юв2284100 0.0 102020
07:00+10ю2381100 0.0 102140
10:00+14ююз2373100 0.0 1020287
13:00+17ююз3561100 0.0 1020972
16:00+17ююз4667100 0.1 1020773
19:00+13ююз4893100 1.6 1020356
22:00+11з49700 1.9 1020212
6 октября, чт
чт601:00+9з48725 0.0 1020147
04:00+8з48791 0.0 1021204
07:00+7з410873 0.0 1021285
10:00+10з69719 0.0 1021754
13:00+12з795394 0.1 10211624
16:00+13з71054100 0.1 10201722
19:00+11зсз61069100 0.1 1022756
22:00+9зсз377797 0.1 1022523
7 октября, пт
пт701:00+8зсз478990 0.1 1023228
04:00+9з2687100 0.1 1023346
07:00+9з2590100 0.0 1023285
10:00+12зюз468027 0.0 1023481
13:00+14з6866100 0.0 1022782
16:00+17з68495 0.0 10211240
19:00+13зсз46651 0.0 1022110
22:00+12зсз377735 0.0 1024124
8 октября, сб
сб801:00+11ссз35860 0.0 1025104
04:00+9ссз34880 0.0 102661
07:00+8ссв22910 0.0 102823
10:00+11всв22740 0.0 1028342
13:00+14вюв21580 0.0 1028703
16:00+15юв22511 0.0 1026758
19:00+12вюв11615 0.0 102711
22:00+11юв226555 0.0 102711